YN1JLX-13 Weather Reports


time (UTC)temp
C
wind
direction
speed
KPH
gust
KPH
rain 1hr
cm
rain 24hr
cm
rain mn
cm
humidity
%
barometer
mb
20260507174640 27 81 14.5 19.3 0.00 0.00 0.00 49 1011.0
20260507173640 27 81 14.5 19.3 0.00 0.00 0.00 49 1011.0
20260507172640 25 77 16.1 20.9 0.00 0.00 0.00 51 1012.0
20260507171640 25 77 16.1 20.9 0.00 0.00 0.00 52 1012.0
20260507170639 25 77 16.1 20.9 0.00 0.00 0.00 53 1012.0
20260507165639 25 77 16.1 20.9 0.00 0.00 0.00 53 1012.0
20260507164639 25 72 17.7 24.1 0.00 0.00 0.00 55 1012.0
20260507163638 25 72 17.7 24.1 0.00 0.00 0.00 55 1012.0
20260507162638 26 72 17.7 24.1 0.00 0.00 0.00 55 1013.0
20260507161638 27 72 17.7 24.1 0.00 0.00 0.00 55 1013.0
20260507160638 24 72 17.7 24.1 0.00 0.00 0.00 58 1013.0
20260507155637 25 72 17.7 24.1 0.00 0.00 0.00 54 1013.0
20260507154637 25 72 17.7 24.1 0.00 0.00 0.00 54 1013.0
20260507153636 22 72 17.7 24.1 0.00 0.00 0.00 60 1013.0
20260507152636 22 71 17.7 25.7 0.00 0.00 0.00 61 1013.0
20260507151636 22 71 17.7 25.7 0.00 0.00 0.00 63 1013.0
20260507150635 22 71 17.7 25.7 0.00 0.00 0.00 63 1013.0
20260507145635 22 71 17.7 25.7 0.00 0.00 0.00 63 1013.0
20260507144635 22 71 17.7 25.7 0.00 0.00 0.00 63 1013.0
20260507143635 22 71 17.7 25.7 0.00 0.00 0.00 64 1013.0
20260507142635 21 72 17.7 29.0 0.00 0.00 0.00 65 1013.0
20260507141634 22 72 17.7 29.0 0.00 0.00 0.00 65 1013.0
20260507140634 21 72 17.7 29.0 0.00 0.00 0.00 65 1013.0
20260507135634 22 72 17.7 29.0 0.00 0.00 0.00 65 1013.0
20260507134634 22 72 17.7 29.0 0.00 0.00 0.00 65 1013.0
20260507133633 21 72 12.9 33.8 0.00 0.00 0.00 65 1013.0
20260507132633 22 72 14.5 33.8 0.00 0.00 0.00 65 1012.0
20260507131632 18 72 12.9 33.8 0.00 0.00 0.00 74 1012.0
20260507130632 18 72 12.9 33.8 0.00 0.00 0.00 74 1012.0
20260507125632 20 72 14.5 33.8 0.00 0.00 0.00 74 1012.0
20260507124631 20 72 14.5 33.8 0.00 0.00 0.00 74 1012.0
20260507123631 18 72 14.5 33.8 0.00 0.00 0.00 74 1012.0
20260507122631 17 79 12.9 33.8 0.00 0.00 0.00 74 1012.0
20260507121631 18 79 12.9 35.4 0.00 0.00 0.00 74 1012.0
20260507120630 18 79 12.9 35.4 0.00 0.00 0.00 74 1012.0
20260507115630 17 79 12.9 33.8 0.00 0.00 0.00 73 1012.0
20260507114629 18 79 12.9 33.8 0.00 0.00 0.00 72 1012.0
20260507113629 18 79 12.9 35.4 0.00 0.00 0.00 72 1012.0
20260507112629 18 72 12.9 37.0 0.00 0.00 0.00 71 1011.0
20260507111628 18 72 12.9 37.0 0.00 0.00 0.00 71 1011.0
20260507110628 20 72 12.9 37.0 0.00 0.00 0.00 71 1011.0
20260507105628 18 72 12.9 37.0 0.00 0.00 0.00 67 1011.0
20260507104627 17 72 12.9 37.0 0.00 0.00 0.00 65 1011.0
20260507103627 18 72 12.9 37.0 0.00 0.00 0.00 65 1011.0
20260507102627 17 72 12.9 38.6 0.00 0.00 0.00 63 1011.0
20260507101627 18 72 14.5 38.6 0.00 0.00 0.00 63 1011.0
20260507100626 17 72 12.9 38.6 0.00 0.00 0.00 63 1011.0
20260507095626 18 72 12.9 38.6 0.00 0.00 0.00 63 1011.0
20260507094626 18 72 12.9 38.6 0.00 0.00 0.00 63 1011.0
20260507093626 20 72 14.5 38.6 0.00 0.00 0.00 63 1011.0
20260507092625 18 71 12.9 37.0 0.00 0.00 0.00 64 1011.0
20260507091624 19 71 14.5 37.0 0.00 0.00 0.00 64 1011.0
20260507090624 19 71 14.5 37.0 0.00 0.00 0.00 64 1011.0
20260507085624 18 77 12.9 33.8 0.00 0.00 0.00 64 1011.0
20260507084624 19 77 12.9 33.8 0.00 0.00 0.00 64 1011.0
20260507083623 19 77 12.9 33.8 0.00 0.00 0.00 64 1011.0
20260507082623 20 77 14.5 33.8 0.00 0.00 0.00 64 1011.0
20260507081623 18 77 14.5 33.8 0.00 0.00 0.00 64 1011.0
20260507080622 18 77 14.5 33.8 0.00 0.00 0.00 64 1011.0
20260507075622 17 77 12.9 33.8 0.00 0.00 0.00 63 1011.0
20260507074622 18 77 14.5 33.8 0.00 0.00 0.00 63 1011.0
20260507073621 18 91 12.9 29.0 0.00 0.00 0.00 63 1011.0
20260507072621 19 91 12.9 30.6 0.00 0.00 0.00 63 1012.0
20260507071621 18 91 12.9 29.0 0.00 0.00 0.00 63 1012.0
20260507070620 20 91 12.9 29.0 0.00 0.00 0.00 63 1012.0
20260507065620 21 91 12.9 30.6 0.00 0.00 0.00 63 1012.0
20260507064620 20 93 12.9 32.2 0.00 0.00 0.00 63 1012.0
20260507063619 21 93 12.9 32.2 0.00 0.00 0.00 63 1012.0
20260507062619 22 93 12.9 32.2 0.00 0.00 0.00 63 1013.0
20260507061619 21 93 12.9 32.2 0.00 0.00 0.00 62 1013.0
20260507060619 21 93 12.9 32.2 0.00 0.00 0.00 62 1013.0
20260507055618 19 93 12.9 32.2 0.00 0.00 0.00 62 1013.0
20260507054618 20 93 12.9 32.2 0.00 0.00 0.00 62 1013.0
20260507053618 21 93 12.9 32.2 0.00 0.00 0.00 62 1013.0
20260507052617 19 96 12.9 33.8 0.00 0.00 0.00 61 1013.0
20260507051617 20 96 12.9 33.8 0.00 0.00 0.00 61 1013.0
20260507050617 21 96 12.9 33.8 0.00 0.00 0.00 61 1013.0
20260507045616 21 96 12.9 33.8 0.00 0.00 0.00 61 1013.0
20260507044616 22 96 12.9 33.8 0.00 0.00 0.00 61 1013.0
20260507043616 21 97 12.9 32.2 0.00 0.00 0.00 59 1013.0
20260507042615 22 97 14.5 32.2 0.00 0.00 0.00 59 1013.0
20260507041615 22 97 12.9 32.2 0.00 0.00 0.00 56 1013.0
20260507040615 23 97 12.9 32.2 0.00 0.00 0.00 56 1013.0
20260507035614 24 97 14.5 32.2 0.00 0.00 0.00 56 1013.0
20260507034614 21 94 12.9 29.0 0.00 0.00 0.00 50 1013.0
20260507033614 21 94 12.9 29.0 0.00 0.00 0.00 50 1013.0
20260507032614 22 94 12.9 29.0 0.00 0.00 0.00 50 1012.0
20260507031613 22 94 12.9 29.0 0.00 0.00 0.00 50 1012.0
20260507030613 23 94 14.5 30.6 0.00 0.00 0.00 50 1012.0
20260507025612 22 94 12.9 29.0 0.00 0.00 0.00 48 1012.0
20260507024612 23 94 14.5 30.6 0.00 0.00 0.00 46 1012.0
20260507023612 22 93 12.9 33.8 0.00 0.00 0.00 46 1012.0
20260507022611 23 93 14.5 33.8 0.00 0.00 0.00 46 1011.0
20260507021611 21 93 12.9 33.8 0.00 0.00 0.00 46 1011.0
20260507020611 22 93 12.9 33.8 0.00 0.00 0.00 46 1011.0
20260507015610 23 93 14.5 33.8 0.00 0.00 0.00 46 1011.0
20260507014610 22 100 16.1 33.8 0.00 0.00 0.00 46 1011.0
20260507013609 23 100 16.1 33.8 0.00 0.00 0.00 46 1011.0
20260507012609 23 100 16.1 33.8 0.00 0.00 0.00 46 1010.0
20260507011609 24 100 16.1 35.4 0.00 0.00 0.00 46 1010.0
20260507010608 28 100 16.1 35.4 0.00 0.00 0.00 51 1010.0
20260507005608 28 100 16.1 35.4 0.00 0.00 0.00 51 1010.0
20260507004608 28 100 16.1 35.4 0.00 0.00 0.00 43 1010.0
20260507003607 28 100 16.1 35.4 0.00 0.00 0.00 43 1010.0
20260507002607 23 97 20.9 35.4 0.00 0.00 0.00 38 1009.0
20260507001607 23 97 20.9 35.4 0.00 0.00 0.00 38 1009.0
20260507000607 23 103 17.7 32.2 0.00 0.00 0.00 36 1009.0
20260506235606 25 103 17.7 32.2 0.00 0.00 0.00 36 1009.0
20260506234606 26 103 17.7 32.2 0.00 0.00 0.00 36 1009.0
20260506233606 26 103 17.7 32.2 0.00 0.00 0.00 36 1009.0
20260506232605 26 103 17.7 32.2 0.00 0.00 0.00 36 1008.0
20260506231605 26 103 17.7 32.2 0.00 0.00 0.00 36 1008.0
20260506230605 25 103 17.7 32.2 0.00 0.00 0.00 35 1008.0
20260506225605 25 103 17.7 32.2 0.00 0.00 0.00 35 1008.0
20260506224604 26 103 17.7 32.2 0.00 0.00 0.00 35 1008.0
20260506223604 26 103 17.7 32.2 0.00 0.00 0.00 35 1008.0
20260506222603 26 90 20.9 24.1 0.00 0.00 0.00 34 1008.0
20260506221603 27 90 20.9 24.1 0.00 0.00 0.00 34 1008.0
20260506220602 28 90 20.9 24.1 0.00 0.00 0.00 34 1008.0
20260506215602 28 90 20.9 24.1 0.00 0.00 0.00 34 1008.0
20260506214602 28 90 17.7 22.5 0.00 0.00 0.00 33 1008.0
20260506213602 28 90 17.7 22.5 0.00 0.00 0.00 33 1008.0
20260506212601 29 90 17.7 22.5 0.00 0.00 0.00 33 1008.0
20260506211600 30 90 19.3 22.5 0.00 0.00 0.00 33 1008.0
20260506210600 28 90 17.7 22.5 0.00 0.00 0.00 35 1008.0
20260506205600 29 90 19.3 22.5 0.00 0.00 0.00 35 1008.0
20260506204559 29 90 19.3 22.5 0.00 0.00 0.00 35 1008.0
20260506203559 28 90 19.3 22.5 0.00 0.00 0.00 36 1008.0
20260506202559 28 83 14.5 22.5 0.00 0.00 0.00 35 1009.0
20260506201559 28 83 14.5 22.5 0.00 0.00 0.00 35 1009.0
20260506200558 28 83 14.5 22.5 0.00 0.00 0.00 35 1009.0
20260506195558 30 83 14.5 22.5 0.00 0.00 0.00 34 1009.0
20260506194558 30 83 12.9 22.5 0.00 0.00 0.00 34 1009.0
20260506193557 31 83 14.5 22.5 0.00 0.00 0.00 34 1009.0
20260506192557 29 74 16.1 22.5 0.00 0.00 0.00 39 1010.0
20260506191557 28 74 16.1 22.5 0.00 0.00 0.00 39 1010.0
20260506190556 28 74 16.1 22.5 0.00 0.00 0.00 39 1010.0
20260506185556 28 74 16.1 22.5 0.00 0.00 0.00 39 1010.0
20260506184555 28 74 16.1 22.5 0.00 0.00 0.00 40 1010.0
20260506183555 28 74 16.1 22.5 0.00 0.00 0.00 40 1010.0
20260506182555 27 79 17.7 25.7 0.00 0.00 0.00 46 1011.0
20260506181554 27 79 17.7 25.7 0.00 0.00 0.00 46 1011.0
20260506180554 27 79 17.7 25.7 0.00 0.00 0.00 46 1011.0
20260506175553 27 79 17.7 25.7 0.00 0.00 0.00 46 1011.0